• In Austria
  • List of Countries
  • For 7 days
  • Water Temperature
  • Satellite Maps
  • Weather Map
  • News
  • Weather Widgets
  • user-avatar
    Login

    Hourly Weather Corfu

    Today, 13 November, Tuesday

    Time Temperature Precipitation Wind Pressure Humidity
    00:00 +15°C° 0 mm 2 mps 770 mmHg 51%
    01:00 +14°C° 0 mm 2 mps 770 mmHg 50%
    02:00 +14°C° 0 mm 2 mps 770 mmHg 49%
    03:00 +14°C° 0 mm 2 mps 769 mmHg 48%
    04:00 +14°C° 0 mm 2 mps 769 mmHg 47%
    05:00 +14°C° 0 mm 2 mps 769 mmHg 48%
    06:00 +14°C° 0 mm 2 mps 770 mmHg 48%
    07:00 +14°C° 0 mm 2 mps 770 mmHg 48%
    08:00 +16°C° 0 mm 2 mps 770 mmHg 43%
    09:00 +19°C° 0 mm 1 mps 770 mmHg 38%
    10:00 +22°C° 0 mm 1 mps 770 mmHg 33%
    11:00 +23°C° 0 mm 1 mps 769 mmHg 32%
    12:00 +23°C° 0 mm 1 mps 769 mmHg 32%
    13:00 +24°C° 0 mm 1 mps 769 mmHg 31%
    14:00 +23°C° 0 mm 2 mps 769 mmHg 36%
    15:00 +21°C° 0 mm 2 mps 768 mmHg 41%
    16:00 +20°C° 0 mm 3 mps 768 mmHg 46%
    17:00 +19°C° 0 mm 3 mps 768 mmHg 48%
    18:00 +18°C° 0 mm 3 mps 769 mmHg 49%
    19:00 +17°C° 0 mm 3 mps 769 mmHg 51%
    20:00 +16°C° 0 mm 3 mps 769 mmHg 51%
    21:00 +16°C° 0 mm 3 mps 769 mmHg 52%
    22:00 +16°C° 0 mm 3 mps 769 mmHg 52%
    23:00 +14°C° 0 mm 3 mps 768 mmHg 52%

    Tomorrow, 14 November, Wednesday

    Time Temperature Precipitation Wind Pressure Humidity
    00:00 +14°C° 0 mm 3 mps 768 mmHg 52%
    01:00 +14°C° 0 mm 3 mps 768 mmHg 52%
    02:00 +14°C° 0 mm 3 mps 768 mmHg 52%
    03:00 +13°C° 0 mm 3 mps 768 mmHg 51%
    04:00 +13°C° 0 mm 3 mps 767 mmHg 51%
    05:00 +13°C° 0 mm 3 mps 767 mmHg 51%
    06:00 +13°C° 0 mm 3 mps 767 mmHg 51%
    07:00 +13°C° 0 mm 3 mps 767 mmHg 51%
    08:00 +16°C° 0 mm 3 mps 767 mmHg 46%
    09:00 +19°C° 0 mm 2 mps 767 mmHg 40%
    10:00 +21°C° 0 mm 2 mps 767 mmHg 34%
    11:00 +23°C° 0 mm 2 mps 767 mmHg 34%
    12:00 +24°C° 0 mm 3 mps 766 mmHg 33%
    13:00 +24°C° 0 mm 3 mps 766 mmHg 32%
    14:00 +22°C° 0 mm 3 mps 766 mmHg 38%
    15:00 +21°C° 0 mm 3 mps 765 mmHg 43%
    16:00 +20°C° 0 mm 4 mps 765 mmHg 48%
    17:00 +19°C° 0 mm 4 mps 765 mmHg 49%
    18:00 +18°C° 0 mm 3 mps 765 mmHg 51%
    19:00 +17°C° 0 mm 3 mps 765 mmHg 52%
    20:00 +17°C° 0 mm 3 mps 765 mmHg 52%
    21:00 +16°C° 0 mm 3 mps 765 mmHg 52%
    22:00 +16°C° 0 mm 3 mps 765 mmHg 53%
    23:00 +16°C° 0 mm 3 mps 765 mmHg 54%

    Day after tomorrow, 15 November, Thursday

    Time Temperature Precipitation Wind Pressure Humidity
    00:00 +14°C° 0 mm 3 mps 765 mmHg 56%
    01:00 +14°C° 0 mm 3 mps 765 mmHg 58%
    02:00 +14°C° 0 mm 3 mps 765 mmHg 60%
    03:00 +13°C° 0 mm 3 mps 765 mmHg 62%
    04:00 +13°C° 0 mm 3 mps 764 mmHg 64%
    05:00 +13°C° 0 mm 3 mps 764 mmHg 65%
    06:00 +13°C° 0 mm 3 mps 764 mmHg 66%
    07:00 +13°C° 0 mm 3 mps 765 mmHg 67%
    08:00 +16°C° 0 mm 2 mps 765 mmHg 59%
    09:00 +18°C° 0 mm 2 mps 764 mmHg 51%
    10:00 +20°C° 0 mm 2 mps 764 mmHg 43%
    11:00 +20°C° 0 mm 2 mps 764 mmHg 41%
    12:00 +21°C° 0 mm 2 mps 764 mmHg 39%
    13:00 +23°C° 0 mm 2 mps 763 mmHg 37%
    14:00 +21°C° 0 mm 2 mps 763 mmHg 41%
    15:00 +19°C° 0 mm 2 mps 763 mmHg 45%
    16:00 +18°C° 0 mm 3 mps 763 mmHg 49%
    17:00 +17°C° 0 mm 3 mps 763 mmHg 49%
    18:00 +16°C° 0 mm 3 mps 764 mmHg 48%
    19:00 +14°C° 0 mm 3 mps 764 mmHg 48%
    20:00 +13°C° 0 mm 3 mps 764 mmHg 48%
    21:00 +13°C° 0 mm 4 mps 764 mmHg 47%
    22:00 +12°C° 0 mm 4 mps 765 mmHg 46%
    23:00 +11°C° 0 mm 4 mps 765 mmHg 47%

    16 November, Friday

    Time Temperature Precipitation Wind Pressure Humidity
    00:00 +10°C° 0 mm 5 mps 765 mmHg 49%
    01:00 +10°C° 0 mm 5 mps 765 mmHg 50%
    02:00 +10°C° 0 mm 5 mps 765 mmHg 50%
    03:00 +10°C° 0 mm 5 mps 765 mmHg 51%
    04:00 +10°C° 0 mm 5 mps 765 mmHg 51%
    05:00 +9°C° 0 mm 5 mps 765 mmHg 53%
    06:00 +9°C° 0 mm 5 mps 765 mmHg 55%
    07:00 +9°C° 0 mm 5 mps 766 mmHg 57%
    08:00 +10°C° 0 mm 5 mps 766 mmHg 52%
    09:00 +13°C° 0 mm 5 mps 766 mmHg 47%
    10:00 +15°C° 0 mm 5 mps 766 mmHg 42%
    11:00 +17°C° 0 mm 4 mps 766 mmHg 39%
    12:00 +17°C° 0 mm 4 mps 765 mmHg 36%
    13:00 +18°C° 0 mm 3 mps 765 mmHg 33%
    14:00 +17°C° 0 mm 3 mps 765 mmHg 36%
    15:00 +16°C° 0 mm 3 mps 765 mmHg 40%
    16:00 +14°C° 0 mm 3 mps 765 mmHg 44%
    17:00 +13°C° 0.2 mm 4 mps 766 mmHg 46%
    18:00 +12°C° 0.2 mm 4 mps 766 mmHg 49%
    19:00 +10°C° 0.2 mm 5 mps 766 mmHg 51%
    20:00 +10°C° 0.1 mm 5 mps 767 mmHg 54%
    21:00 +9°C° 0.1 mm 5 mps 767 mmHg 57%
    22:00 +9°C° 0.1 mm 5 mps 767 mmHg 59%
    23:00 +9°C° 0 mm 6 mps 767 mmHg 61%

    17 November, Saturday

    Time Temperature Precipitation Wind Pressure Humidity
    00:00 +8°C° 0 mm 6 mps 767 mmHg 63%
    01:00 +8°C° 0 mm 6 mps 766 mmHg 65%
    02:00 +8°C° 0 mm 6 mps 766 mmHg 66%
    03:00 +8°C° 0 mm 6 mps 766 mmHg 67%
    04:00 +7°C° 0 mm 6 mps 766 mmHg 68%
    05:00 +7°C° 0 mm 6 mps 766 mmHg 67%
    06:00 +8°C° 0 mm 6 mps 766 mmHg 66%
    07:00 +8°C° 0 mm 6 mps 766 mmHg 65%
    08:00 +9°C° 0 mm 6 mps 766 mmHg 59%
    09:00 +12°C° 0 mm 5 mps 766 mmHg 53%
    10:00 +14°C° 0 mm 5 mps 766 mmHg 48%
    11:00 +14°C° 0 mm 5 mps 766 mmHg 47%
    12:00 +14°C° 0 mm 5 mps 765 mmHg 46%
    13:00 +14°C° 0 mm 5 mps 765 mmHg 45%
    14:00 +14°C° 0 mm 5 mps 765 mmHg 47%
    15:00 +13°C° 0 mm 5 mps 765 mmHg 49%
    16:00 +13°C° 0 mm 5 mps 765 mmHg 52%
    17:00 +12°C° 0 mm 5 mps 765 mmHg 54%
    18:00 +12°C° 0 mm 5 mps 765 mmHg 55%
    19:00 +10°C° 0 mm 6 mps 765 mmHg 57%
    20:00 +10°C° 0 mm 6 mps 765 mmHg 59%
    21:00 +10°C° 0 mm 6 mps 764 mmHg 60%
    22:00 +10°C° 0 mm 6 mps 764 mmHg 61%
    23:00 +9°C° 0.1 mm 6 mps 764 mmHg 62%

    18 November, Sunday

    Time Temperature Precipitation Wind Pressure Humidity
    00:00 +9°C° 0.1 mm 6 mps 763 mmHg 64%
    01:00 +9°C° 0.1 mm 7 mps 763 mmHg 65%
    02:00 +9°C° 0.6 mm 7 mps 762 mmHg 67%
    03:00 +9°C° 0.6 mm 7 mps 762 mmHg 68%
    04:00 +9°C° 0.6 mm 7 mps 761 mmHg 69%
    05:00 +9°C° 1 mm 7 mps 761 mmHg 69%
    06:00 +9°C° 1 mm 7 mps 761 mmHg 70%
    07:00 +9°C° 1 mm 8 mps 761 mmHg 70%
    08:00 +9°C° 1.5 mm 8 mps 761 mmHg 71%
    09:00 +10°C° 1.6 mm 9 mps 761 mmHg 73%
    10:00 +10°C° 1.6 mm 9 mps 761 mmHg 74%
    11:00 +10°C° 0.4 mm 9 mps 760 mmHg 75%
    12:00 +10°C° 0.4 mm 9 mps 760 mmHg 75%
    13:00 +10°C° 0.4 mm 9 mps 759 mmHg 76%
    14:00 +10°C° 0.2 mm 9 mps 759 mmHg 76%
    15:00 +10°C° 0.2 mm 9 mps 759 mmHg 76%
    16:00 +10°C° 0.2 mm 9 mps 759 mmHg 76%
    17:00 +10°C° 0.3 mm 9 mps 759 mmHg 76%
    18:00 +10°C° 0.3 mm 9 mps 759 mmHg 76%
    19:00 +10°C° 0.3 mm 9 mps 759 mmHg 77%
    20:00 +10°C° 0.5 mm 9 mps 758 mmHg 78%
    21:00 +9°C° 0.5 mm 8 mps 758 mmHg 79%
    22:00 +9°C° 0.5 mm 8 mps 758 mmHg 80%
    23:00 +10°C° 0.2 mm 8 mps 758 mmHg 81%
    Show more